Home > Weather > Fevik > Past weeks

Flag for Norway Past Weather in Fevik, Norway — Yesterday and Last 2 Weeks

Now
58 °F

Cool.


Feels Like: 56 °F
Forecast: 53 / 59 °F
Wind: 10 mph from South

Location: Torungen Fyr

Current Time: Jun 30, 2016 at 3:53:52 AM

Latest Report: Jun 30, 2016 at 3:00 AM


Visibility: N/A

Pressure: 29.69 "Hg

Humidity: 81%

Dew Point: 53 °F

Location of FevikLocation

Past Weather in Fevik — Graph

°F

Fevik Temperature Yesterday

Maximum temperature yesterday: 62 °F (at 1:00 PM)
Minimum temperature yesterday: 52 °F (at 5:00 AM)
Average temperature yesterday: 58 °F

High & Low Weather Summary for the Past Weeks

 TemperatureHumidityPressure
High67 °F (Jun 17, 1:00 PM)98% (Jun 24, 5:00 AM)30.19 "Hg (Jun 24, 5:00 AM)
Low52 °F (Jun 20, 5:00 AM)60% (Jun 28, 10:00 AM)29.56 "Hg (Jun 15, 6:00 AM)
Average60 °F86%29.83 "Hg
* Reported Jun 15 2:00 AM — Jun 30 2:00 AM, Fevik, Weather by CustomWeather, © 2016

Note: Actual official high and low records may vary slightly from our data, if they occured in-between our weather recording intervals... More about our weather records

Advertising

Fevik Weather History for the Previous 24 Hours

Scroll right to see more
 ConditionsComfort  
Time TempWeatherWind HumidityBarometerVisibility
2:00 AM
Thu, Jun 30
59 °FCool.7 mph84%29.70 "HgN/A
1:00 AM59 °FCool.8 mph85%29.72 "HgN/A
12:00 AM59 °FCool.7 mph86%29.72 "HgN/A
9:00 PM
Wed, Jun 29
59 °FCool.12 mph87%29.72 "HgN/A
8:00 PM60 °FCool.10 mph88%29.73 "HgN/A
7:00 PM60 °FCool.9 mph86%29.74 "HgN/A
6:00 PM60 °FCool.10 mph84%29.74 "HgN/A
5:00 PM61 °FCool.9 mph83%29.76 "HgN/A
4:00 PM61 °FCool.8 mph81%29.77 "HgN/A
2:00 PM61 °FCool.9 mph78%29.79 "HgN/A
1:00 PM62 °FCool.7 mph75%29.80 "HgN/A
12:00 PM60 °FCool.7 mph71%29.81 "HgN/A
10:00 AM60 °FCool.7 mph73%29.82 "HgN/A
9:00 AM59 °FCool.7 mph77%29.83 "HgN/A
8:00 AM57 °FCool.3 mph83%29.84 "HgN/A
7:00 AM54 °FCool.2 mph91%29.85 "HgN/A
6:00 AM54 °FCool.2 mph92%29.85 "HgN/A
5:00 AM52 °FCool.1 mph92%29.86 "HgN/A
4:00 AM53 °FCool.1 mph92%29.86 "HgN/A
3:00 AM54 °FCool.1 mph90%29.88 "HgN/A
Weather by CustomWeather, © 2016

See weather overviewHow to use our weather pages